#timestamp,LO_Frequency,Hit,Temp,Hum 
1480028415.3,286047063.5,N,0.0,0.0
1480028435.2,286047060.6,N,0.0,0.0
1480028455.0,286047061.3,N,0.0,0.0
1480028455.9,286047061.3,N,0.0,0.0
1480028475.8,286047059.3,N,0.0,0.0
1480028495.6,286047061.0,N,0.0,0.0
1480028515.4,286047061.6,N,0.0,0.0
1480028535.3,286047063.2,N,0.0,0.0
1480028555.1,286047066.1,N,0.0,0.0
1480028575.9,286047065.3,N,0.0,0.0
1480028595.7,286047068.3,N,0.0,0.0
1480028615.5,286047068.1,N,0.0,0.0
1480028635.4,286047069.3,N,0.0,0.0
1480028655.2,286047071.4,N,0.0,0.0
1480028675.0,286047071.5,N,0.0,0.0
1480028675.9,286047071.5,N,0.0,0.0
1480028695.8,286047072.7,N,0.0,0.0
1480028715.6,286047072.3,N,0.0,0.0
1480028735.5,286047074.7,N,0.0,0.0
1480028755.3,286047074.3,N,0.0,0.0
1480028775.1,286047074.7,N,0.0,0.0
1480028795.9,286047072.3,N,0.0,0.0
1480028815.7,286047074.7,N,0.0,0.0
1480028835.6,286047074.8,N,0.0,0.0
1480028855.4,286047070.5,N,0.0,0.0
1480028875.2,286047074.3,N,0.0,0.0
1480028895.1,286047073.6,N,0.0,0.0
1480028896.0,286047073.6,N,0.0,0.0
1480028915.8,286047073.8,N,0.0,0.0
1480028935.7,286047073.8,N,0.0,0.0
1480028955.5,286047071.9,N,0.0,0.0
1480028975.3,286047071.0,N,0.0,0.0
1480028995.2,286047071.2,N,0.0,0.0
1480029015.9,286047069.0,N,0.0,0.0
1480029035.7,286047068.5,N,0.0,0.0
1480029055.6,286047068.6,N,0.0,0.0
1480029075.4,286047067.3,N,0.0,0.0
1480029095.3,286047068.2,N,0.0,0.0
1480029115.1,286047069.9,N,0.0,0.0
1480029116.0,286047069.9,N,0.0,0.0
1480029135.8,286047068.2,N,0.0,0.0
1480029155.7,286047069.2,N,0.0,0.0
1480029175.5,286047067.3,N,0.0,0.0
1480029195.4,286047069.2,N,0.0,0.0
1480029215.2,286047067.3,N,0.0,0.0
1480029235.0,286047067.1,N,0.0,0.0
1480029235.9,286047067.1,N,0.0,0.0
1480029255.8,286047068.5,N,0.0,0.0
1480029275.6,286047069.1,N,0.0,0.0
1480029295.4,286047067.6,N,0.0,0.0
1480029315.3,286047067.2,N,0.0,0.0
1480029335.1,286047067.7,N,0.0,0.0
1480029355.9,286047071.2,N,0.0,0.0
1480029375.7,286047068.9,N,0.0,0.0
1480029395.5,286047071.3,N,0.0,0.0
1480029415.4,286047068.7,N,0.0,0.0
1480029435.2,286047068.5,N,0.0,0.0
1480029455.1,286047070.6,N,0.0,0.0
1480029456.0,286047070.6,N,0.0,0.0
1480029475.8,286047071.6,N,0.0,0.0
1480029495.6,286047070.3,N,0.0,0.0
1480029515.5,286047071.1,N,0.0,0.0
1480029535.3,286047072.9,N,0.0,0.0
1480029555.2,286047072.3,N,0.0,0.0
1480029575.9,286047073.0,N,0.0,0.0
1480029595.7,286047070.6,N,0.0,0.0
1480029615.6,286047073.9,N,0.0,0.0
1480029635.4,286047075.8,N,0.0,0.0
1480029655.2,286047078.0,N,0.0,0.0
1480029675.1,286047074.2,N,0.0,0.0
1480029676.0,286047074.2,N,0.0,0.0
1480029695.8,286047075.4,N,0.0,0.0
1480029715.7,286047077.3,N,0.0,0.0
1480029735.5,286047077.0,N,0.0,0.0
1480029755.3,286047077.6,N,0.0,0.0
1480029775.2,286047076.3,N,0.0,0.0
1480029795.0,286047077.9,N,0.0,0.0
1480029795.9,286047077.9,N,0.0,0.0
1480029815.8,286047076.4,N,0.0,0.0
1480029835.6,286047075.6,N,0.0,0.0
1480029855.4,286047075.1,N,0.0,0.0
1480029875.3,286047074.9,N,0.0,0.0
1480029895.1,286047076.9,N,0.0,0.0
1480029915.9,286047076.9,N,0.0,0.0
1480029935.7,286047075.6,N,0.0,0.0
1480029955.5,286047077.2,N,0.0,0.0
1480029975.4,286047079.6,N,0.0,0.0
1480029995.2,286047079.3,N,0.0,0.0
1480030015.0,286047078.6,N,0.0,0.0
1480030015.9,286047078.6,N,0.0,0.0
1480030035.8,286047080.4,N,0.0,0.0
1480030055.6,286047078.2,N,0.0,0.0
1480030075.5,286047078.1,N,0.0,0.0
1480030095.3,286047078.7,N,0.0,0.0
1480030115.1,286047078.8,N,0.0,0.0
1480030135.9,286047078.2,N,0.0,0.0
1480030155.7,286047076.5,N,0.0,0.0
1480030175.5,286047077.5,N,0.0,0.0
1480030195.4,286047077.0,N,0.0,0.0
1480030215.2,286047079.6,N,0.0,0.0
1480030235.1,286047078.4,N,0.0,0.0
1480030236.0,286047078.4,N,0.0,0.0
1480030255.8,286047078.3,N,0.0,0.0
1480030275.6,286047078.8,N,0.0,0.0
1480030295.5,286047081.1,N,0.0,0.0
1480030315.3,286047080.3,N,0.0,0.0
1480030335.2,286047082.7,N,0.0,0.0
1480030355.9,286047082.3,N,0.0,0.0
1480030375.7,286047082.8,N,0.0,0.0
1480030395.6,286047079.7,N,0.0,0.0
1480030415.4,286047079.8,N,0.0,0.0
1480030435.2,286047082.8,N,0.0,0.0
1480030455.1,286047082.5,N,0.0,0.0
1480030456.0,286047082.5,N,0.0,0.0
1480030475.8,286047081.9,N,0.0,0.0
1480030495.7,286047081.3,N,0.0,0.0
1480030515.5,286047084.3,N,0.0,0.0
1480030535.3,286047084.2,N,0.0,0.0
1480030555.2,286047083.1,N,0.0,0.0
1480030575.0,286047083.3,N,0.0,0.0
1480030575.9,286047083.3,N,0.0,0.0
1480030595.8,286047083.0,N,0.0,0.0
1480030615.6,286047085.6,N,0.0,0.0
1480030635.4,286047083.2,N,0.0,0.0
1480030655.3,286047083.8,N,0.0,0.0
1480030675.1,286047083.2,N,0.0,0.0
1480030695.9,286047083.0,N,0.0,0.0
1480030715.7,286047085.6,N,0.0,0.0
1480030735.5,286047082.9,N,0.0,0.0
1480030755.4,286047083.0,N,0.0,0.0
1480030775.2,286047085.9,N,0.0,0.0
1480030795.0,286047085.5,N,0.0,0.0
1480030795.9,286047085.5,N,0.0,0.0
1480030815.8,286047085.8,N,0.0,0.0
1480030835.6,286047085.6,N,0.0,0.0
1480030855.5,286047082.9,N,0.0,0.0
1480030875.3,286047083.0,N,0.0,0.0
1480030895.1,286047086.0,N,0.0,0.0
1480030915.9,286047085.1,N,0.0,0.0
1480030935.7,286047087.6,N,0.0,0.0
1480030955.6,286047085.0,N,0.0,0.0
1480030975.4,286047087.5,N,0.0,0.0
1480030995.2,286047087.2,N,0.0,0.0
1480031015.1,286047087.6,N,0.0,0.0
1480031016.0,286047087.6,N,0.0,0.0
1480031035.8,286047084.9,N,0.0,0.0
1480031055.7,286047087.2,N,0.0,0.0
1480031075.5,286047087.4,N,0.0,0.0
1480031095.3,286047084.5,N,0.0,0.0
1480031115.2,286047087.2,N,0.0,0.0
1480031135.0,286047086.6,N,0.0,0.0
1480031135.9,286047086.6,N,0.0,0.0
1480031155.7,286047088.8,N,0.0,0.0
1480031175.6,286047088.1,N,0.0,0.0
1480031195.4,286047087.9,N,0.0,0.0
1480031215.3,286047088.5,N,0.0,0.0
1480031235.1,286047088.9,N,0.0,0.0
1480031255.8,286047086.2,N,0.0,0.0
1480031275.7,286047089.2,N,0.0,0.0
1480031295.5,286047088.9,N,0.0,0.0
1480031315.4,286047087.8,N,0.0,0.0
1480031335.2,286047088.2,N,0.0,0.0
1480031355.0,286047087.9,N,0.0,0.0
1480031355.9,286047087.9,N,0.0,0.0
1480031375.8,286047088.6,N,0.0,0.0
1480031395.6,286047088.4,N,0.0,0.0
1480031415.4,286047088.2,N,0.0,0.0
1480031435.3,286047090.0,N,0.0,0.0
1480031455.1,286047090.4,N,0.0,0.0
1480031475.9,286047088.1,N,0.0,0.0
1480031495.7,286047087.7,N,0.0,0.0
1480031515.5,286047090.2,N,0.0,0.0
1480031535.4,286047090.2,N,0.0,0.0
1480031555.2,286047090.1,N,0.0,0.0
1480031575.0,286047090.4,N,0.0,0.0
1480031576.0,286047090.4,N,0.0,0.0
1480031595.8,286047090.6,N,0.0,0.0
1480031615.6,286047090.0,N,0.0,0.0
1480031635.5,286047090.3,N,0.0,0.0
1480031655.3,286047090.1,N,0.0,0.0
1480031675.1,286047089.6,N,0.0,0.0
1480031695.9,286047090.0,N,0.0,0.0
1480031715.7,286047090.0,N,0.0,0.0
1480031735.6,286047090.3,N,0.0,0.0
1480031755.4,286047090.7,N,0.0,0.0
1480031775.2,286047090.7,N,0.0,0.0
1480031795.1,286047087.7,N,0.0,0.0
1480031796.0,286047087.7,N,0.0,0.0
1480031815.8,286047090.3,N,0.0,0.0
1480031835.7,286047089.5,N,0.0,0.0
1480031855.5,286047087.8,N,0.0,0.0
1480031875.3,286047088.2,N,0.0,0.0
1480031895.2,286047090.5,N,0.0,0.0
1480031915.9,286047089.8,N,0.0,0.0
1480031935.7,286047092.4,N,0.0,0.0
1480031955.6,286047092.3,N,0.0,0.0
1480031975.4,286047089.3,N,0.0,0.0
1480031995.3,286047091.9,N,0.0,0.0
